Powrót do katalogu

CZ-6A DEB

AktywnySSO
NORAD 54924·DEBRIS·🇨🇳 China

Wystrzelony Nov 11, 2022 z Taiyuan Satellite Launch Center

Loading…

Następne Przeloty (najbliższe 24 godziny)

TLE

ŚwieżeSource: Space-Track

Epoka: Sep 13, 2026, 01:10 UTC

1 54924U 22151RM  26256.04884513  .00002817  00000-0  89109-3 0  9997
2 54924  98.7317 297.9732 0039019  48.6859 311.7676 14.40528438199999

Śledź CZ-6A DEB w czasie rzeczywistym z AllMySat

Download on the App Store